This is the latest recevied weather packets stored in our database for station/object N1ICS-1. If no packets are shown the sender has not sent any weather packets the latest 10 day(s).
| Time | Temp. | Humidity | Pressure | Rain* | Wind** | Luminosity | Snow |
|---|---|---|---|---|---|---|---|
| 1777641303 | 4.44° C | 99% | 1013.8 hPa | 1.78 mm | - | 36 W/m² | - |
| 1777641002 | 4.44° C | 99% | 1013.8 hPa | 2.29 mm | - | 36 W/m² | - |
| 1777640702 | 4.44° C | 99% | 1013.8 hPa | 3.56 mm | - | 42 W/m² | - |
| 1777640402 | 4.44° C | 99% | 1013.6 hPa | 3.56 mm | - | 31 W/m² | - |
| 1777640102 | 4.44° C | 99% | 1013.9 hPa | 3.56 mm | - | 27 W/m² | - |
| 1777639802 | 5° C | 99% | 1013.9 hPa | 2.79 mm | - | 22 W/m² | - |
| 1777639502 | 4.44° C | 99% | 1013.8 hPa | 3.56 mm | - | 26 W/m² | - |
| 1777639202 | 4.44° C | 99% | 1013.7 hPa | 3.56 mm | - | 26 W/m² | - |
| 1777638902 | 4.44° C | 99% | 1013.8 hPa | 2.79 mm | - | 23 W/m² | - |
| 1777638602 | 5° C | 99% | 1013.6 hPa | 1.78 mm | - | 22 W/m² | - |
| 1777638302 | 5° C | 99% | 1013.7 hPa | 1.02 mm | - | 18 W/m² | - |
| 1777638001 | 5° C | 99% | 1013.6 hPa | 0.51 mm | - | 12 W/m² | - |
| 1777637702 | 5° C | 99% | 1013.6 hPa | 0 mm | - | 18 W/m² | - |
| 1777637403 | 5.56° C | 99% | 1013.6 hPa | 0.51 mm | - | 12 W/m² | - |
| 1777637102 | 5° C | 99% | 1013.5 hPa | 0.51 mm | - | 12 W/m² | - |
| 1777636802 | 5° C | 99% | 1013.5 hPa | 0 mm | - | 14 W/m² | - |
| 1777636501 | 5° C | 99% | 1013.3 hPa | 0 mm | - | 13 W/m² | - |
| 1777636202 | 5° C | 99% | 1013.3 hPa | 0 mm | - | 24 W/m² | - |
| 1777635901 | 5° C | 99% | 1013.3 hPa | 0 mm | - | 13 W/m² | - |
| 1777635602 | 5° C | 99% | 1013.3 hPa | 0.51 mm | - | 13 W/m² | - |
| 1777635302 | 5° C | 99% | 1013.3 hPa | 0.51 mm | - | 16 W/m² | - |
| 1777635002 | 5° C | 99% | 1013.4 hPa | 0.51 mm | - | 15 W/m² | - |
| 1777634702 | 5° C | 99% | 1013.5 hPa | 1.02 mm | - | 26 W/m² | - |
| 1777634402 | 5° C | 99% | 1013.7 hPa | 1.02 mm | - | 14 W/m² | - |
| 1777634102 | 5° C | 99% | 1013.8 hPa | 1.02 mm | - | 4 W/m² | - |
* Rain latest hour (hover to see other rain measurements)
** Current wind speed in m/s (hover to see current wind gust speed)